When you browse on this site, cookies collect data to enhance your experience and personalize the content and advertising you see.
Visit our Privacy Policy to learn more. By continuing to use the site, you agree to this use of cookies and data.
  • In Austria
  • List of Countries
  • For 7 days
  • Water Temperature
  • Weather Map
  • News
  • Weather Widgets
  • user-avatar
    Login

    Hourly Weather Sucre

    Today, 14 November, Thursday

    Time Temperature Precipitation Wind Pressure Humidity
    00:00 +18°C° 0 mm 0 mps 654 mmHg 94%
    01:00 +17°C° 0 mm 0 mps 654 mmHg 95%
    02:00 +17°C° 0 mm 0 mps 654 mmHg 95%
    03:00 +17°C° 0 mm 0 mps 654 mmHg 95%
    04:00 +17°C° 0 mm 0 mps 654 mmHg 95%
    05:00 +18°C° 0 mm 0 mps 654 mmHg 94%
    06:00 +18°C° 0 mm 0 mps 655 mmHg 94%
    07:00 +18°C° 0 mm 0 mps 655 mmHg 93%
    08:00 +20°C° 0.1 mm 0 mps 656 mmHg 86%
    09:00 +24°C° 0.1 mm 1 mps 656 mmHg 80%
    10:00 +26°C° 0.1 mm 1 mps 657 mmHg 74%
    11:00 +26°C° 0.8 mm 1 mps 656 mmHg 74%
    12:00 +27°C° 0.8 mm 1 mps 656 mmHg 75%
    13:00 +27°C° 0.8 mm 1 mps 655 mmHg 76%
    14:00 +26°C° 1.5 mm 1 mps 655 mmHg 80%
    15:00 +25°C° 1.5 mm 1 mps 654 mmHg 84%
    16:00 +24°C° 1.5 mm 1 mps 654 mmHg 88%
    17:00 +23°C° 1.7 mm 1 mps 654 mmHg 90%
    18:00 +22°C° 1.7 mm 1 mps 654 mmHg 93%
    19:00 +19°C° 1.7 mm 0 mps 654 mmHg 95%
    20:00 +19°C° 1.1 mm 0 mps 654 mmHg 95%
    21:00 +19°C° 1.1 mm 0 mps 655 mmHg 96%
    22:00 +19°C° 1.1 mm 0 mps 656 mmHg 96%
    23:00 +18°C° 0.2 mm 0 mps 655 mmHg 96%

    Tomorrow, 15 November, Friday

    Time Temperature Precipitation Wind Pressure Humidity
    00:00 +18°C° 0.2 mm 0 mps 655 mmHg 97%
    01:00 +18°C° 0.2 mm 0 mps 654 mmHg 97%
    02:00 +18°C° 0.3 mm 0 mps 654 mmHg 97%
    03:00 +18°C° 0.3 mm 0 mps 654 mmHg 97%
    04:00 +18°C° 0.3 mm 0 mps 654 mmHg 97%
    05:00 +18°C° 0.1 mm 0 mps 654 mmHg 97%
    06:00 +18°C° 0.1 mm 0 mps 655 mmHg 96%
    07:00 +18°C° 0.1 mm 0 mps 655 mmHg 96%
    08:00 +20°C° 0.2 mm 0 mps 655 mmHg 92%
    09:00 +23°C° 0.2 mm 1 mps 656 mmHg 89%
    10:00 +24°C° 0.2 mm 1 mps 656 mmHg 86%
    11:00 +24°C° 0.7 mm 1 mps 656 mmHg 85%
    12:00 +25°C° 0.7 mm 1 mps 655 mmHg 85%
    13:00 +25°C° 0.7 mm 1 mps 654 mmHg 84%
    14:00 +25°C° 1.5 mm 1 mps 654 mmHg 86%
    15:00 +24°C° 1.5 mm 1 mps 653 mmHg 88%
    16:00 +24°C° 1.5 mm 1 mps 653 mmHg 90%
    17:00 +23°C° 0.9 mm 1 mps 653 mmHg 92%
    18:00 +22°C° 0.9 mm 1 mps 653 mmHg 94%
    19:00 +19°C° 0.9 mm 0 mps 654 mmHg 96%
    20:00 +19°C° 0.4 mm 0 mps 654 mmHg 96%
    21:00 +19°C° 0.4 mm 0 mps 655 mmHg 96%
    22:00 +18°C° 0.4 mm 0 mps 655 mmHg 96%
    23:00 +18°C° 0.5 mm 0 mps 655 mmHg 97%

    Day after tomorrow, 16 November, Saturday

    Time Temperature Precipitation Wind Pressure Humidity
    00:00 +18°C° 0.5 mm 0 mps 654 mmHg 97%
    01:00 +18°C° 0.5 mm 0 mps 653 mmHg 97%
    02:00 +18°C° 0.7 mm 0 mps 653 mmHg 97%
    03:00 +18°C° 0.7 mm 0 mps 653 mmHg 97%
    04:00 +18°C° 0.7 mm 0 mps 653 mmHg 98%
    05:00 +18°C° 0.2 mm 0 mps 653 mmHg 97%
    06:00 +18°C° 0.2 mm 0 mps 654 mmHg 96%
    07:00 +18°C° 0.2 mm 0 mps 654 mmHg 96%
    08:00 +19°C° 0.2 mm 0 mps 654 mmHg 92%
    09:00 +23°C° 0.2 mm 1 mps 655 mmHg 88%
    10:00 +24°C° 0.2 mm 1 mps 656 mmHg 84%
    11:00 +24°C° 0.8 mm 1 mps 655 mmHg 85%
    12:00 +24°C° 0.8 mm 1 mps 654 mmHg 86%
    13:00 +25°C° 0.8 mm 1 mps 653 mmHg 86%
    14:00 +24°C° 1.3 mm 1 mps 653 mmHg 87%
    15:00 +24°C° 1.3 mm 1 mps 652 mmHg 89%
    16:00 +23°C° 1.3 mm 1 mps 652 mmHg 90%
    17:00 +23°C° 0.9 mm 1 mps 652 mmHg 92%
    18:00 +20°C° 0.9 mm 0 mps 652 mmHg 95%
    19:00 +19°C° 0.9 mm 0 mps 653 mmHg 97%
    20:00 +19°C° 0.5 mm 0 mps 653 mmHg 97%
    21:00 +19°C° 0.5 mm 0 mps 654 mmHg 97%
    22:00 +19°C° 0.5 mm 0 mps 654 mmHg 96%
    23:00 +18°C° 0.7 mm 0 mps 654 mmHg 97%

    17 November, Sunday

    Time Temperature Precipitation Wind Pressure Humidity
    00:00 +18°C° 0.7 mm 0 mps 653 mmHg 97%
    01:00 +18°C° 0.7 mm 0 mps 653 mmHg 98%
    02:00 +18°C° 0.4 mm 0 mps 653 mmHg 98%
    03:00 +18°C° 0.4 mm 0 mps 652 mmHg 98%
    04:00 +18°C° 0.4 mm 0 mps 652 mmHg 98%
    05:00 +18°C° 0.2 mm 0 mps 653 mmHg 97%
    06:00 +18°C° 0.2 mm 0 mps 653 mmHg 97%
    07:00 +18°C° 0.2 mm 0 mps 654 mmHg 96%
    08:00 +19°C° 0.2 mm 0 mps 654 mmHg 94%
    09:00 +20°C° 0.2 mm 0 mps 654 mmHg 93%
    10:00 +22°C° 0.2 mm 1 mps 654 mmHg 91%
    11:00 +23°C° 0.6 mm 1 mps 654 mmHg 89%
    12:00 +23°C° 0.6 mm 1 mps 653 mmHg 88%
    13:00 +24°C° 0.6 mm 1 mps 653 mmHg 86%
    14:00 +24°C° 1.1 mm 1 mps 652 mmHg 88%
    15:00 +23°C° 1.1 mm 1 mps 652 mmHg 90%
    16:00 +23°C° 1.1 mm 1 mps 652 mmHg 92%
    17:00 +22°C° 1 mm 1 mps 652 mmHg 94%
    18:00 +21°C° 1 mm 1 mps 652 mmHg 95%
    19:00 +19°C° 1 mm 0 mps 653 mmHg 96%
    20:00 +18°C° 2.7 mm 0 mps 653 mmHg 97%
    21:00 +18°C° 2.7 mm 0 mps 653 mmHg 97%
    22:00 +18°C° 2.7 mm 0 mps 654 mmHg 98%
    23:00 +18°C° 0.5 mm 0 mps 653 mmHg 98%

    18 November, Monday

    Time Temperature Precipitation Wind Pressure Humidity
    00:00 +18°C° 0.5 mm 0 mps 653 mmHg 98%
    01:00 +17°C° 0.5 mm 0 mps 653 mmHg 98%
    02:00 +17°C° 0 mm 0 mps 652 mmHg 97%
    03:00 +17°C° 0 mm 0 mps 652 mmHg 97%
    04:00 +17°C° 0 mm 0 mps 652 mmHg 96%
    05:00 +18°C° 0 mm 0 mps 653 mmHg 95%
    06:00 +18°C° 0 mm 0 mps 653 mmHg 95%
    07:00 +18°C° 0 mm 0 mps 653 mmHg 94%
    08:00 +20°C° 0.1 mm 0 mps 654 mmHg 88%
    09:00 +24°C° 0.1 mm 1 mps 655 mmHg 82%
    10:00 +25°C° 0.1 mm 1 mps 655 mmHg 76%
    11:00 +26°C° 0.7 mm 1 mps 655 mmHg 76%
    12:00 +26°C° 0.7 mm 1 mps 654 mmHg 77%
    13:00 +26°C° 0.7 mm 1 mps 654 mmHg 77%
    14:00 +25°C° 1.7 mm 1 mps 653 mmHg 82%
    15:00 +24°C° 1.7 mm 1 mps 653 mmHg 86%
    16:00 +24°C° 1.7 mm 1 mps 652 mmHg 91%
    17:00 +23°C° 1.4 mm 1 mps 652 mmHg 93%
    18:00 +22°C° 1.4 mm 1 mps 653 mmHg 94%
    19:00 +19°C° 1.4 mm 0 mps 653 mmHg 96%
    20:00 +19°C° 1.3 mm 0 mps 653 mmHg 97%
    21:00 +18°C° 1.3 mm 0 mps 653 mmHg 97%
    22:00 +18°C° 1.3 mm 0 mps 654 mmHg 98%
    23:00 +18°C° 0.5 mm 0 mps 654 mmHg 98%

    19 November, Tuesday

    Time Temperature Precipitation Wind Pressure Humidity
    00:00 +18°C° 0.5 mm 0 mps 653 mmHg 98%
    01:00 +18°C° 0.5 mm 0 mps 653 mmHg 97%
    02:00 +18°C° 0.4 mm 0 mps 653 mmHg 97%
    03:00 +18°C° 0.4 mm 0 mps 653 mmHg 97%
    04:00 +18°C° 0.4 mm 0 mps 653 mmHg 97%
    05:00 +18°C° 0.6 mm 0 mps 653 mmHg 96%
    06:00 +18°C° 0.6 mm 0 mps 654 mmHg 96%
    07:00 +18°C° 0.6 mm 0 mps 654 mmHg 96%
    08:00 +19°C° 0.3 mm 0 mps 655 mmHg 92%
    09:00 +23°C° 0.3 mm 1 mps 655 mmHg 89%
    10:00 +24°C° 0.3 mm 1 mps 656 mmHg 85%
    11:00 +25°C° 0.8 mm 1 mps 655 mmHg 83%
    12:00 +25°C° 0.8 mm 1 mps 655 mmHg 82%
    13:00 +25°C° 0.8 mm 1 mps 654 mmHg 80%
    14:00 +25°C° 2.2 mm 1 mps 654 mmHg 84%
    15:00 +24°C° 2.2 mm 1 mps 653 mmHg 87%
    16:00 +21°C° 2.2 mm 0 mps 653 mmHg 91%
    17:00 +20°C° 1.8 mm 0 mps 653 mmHg 92%
    18:00 +20°C° 1.8 mm 0 mps 653 mmHg 94%
    19:00 +19°C° 1.8 mm 0 mps 654 mmHg 96%
    20:00 +19°C° 2.7 mm 0 mps 654 mmHg 96%
    21:00 +18°C° 2.7 mm 0 mps 654 mmHg 96%
    22:00 +18°C° 2.7 mm 0 mps 655 mmHg 96%
    23:00 +18°C° 2 mm 0 mps 654 mmHg 96%
    Show more